Weather observations for the past three days for
Marquette Sawyer Regional Airport
Imperial (Metric)
Date Time (edt) Wind (mph) Vis. (mi.) Weather Sky Cond. Temperature (ºF) Relative Humidity Wind Chill (°F) Heat Index (°F) Pressure Precipitation (in)
Air Dwpt 6 hour altimeter (in) sea level (mb) 1 hr 3 hr 6 hr
Max. Min.
06 08:46 W 9 10.00 Overcast OVC038 33.8 23 65% 27 29.86 0.0
06 07:46 W 6 10.00 Overcast OVC044 32 23 69% 27 29.85 0.0
06 06:46 W 6 10.00 Overcast OVC044 32 23 69% 27 29.84 0.0
06 05:58 W 5 10.00 Overcast OVC046 32 23 69% 28 29.83 0.0
06 05:38 W 5 10.00 Overcast OVC046 32 21.2 64% 28 29.83 0.0
06 05:18 W 6 10.00 Overcast OVC046 30.2 21.2 69% 25 29.83 0.0
06 04:58 W 7 10.00 Overcast OVC046 30.2 21.2 69% 24 29.83 0.0
06 04:38 SW 5 10.00 Overcast OVC046 30.2 21.2 69% 26 29.83 0.0
06 04:18 SW 3 10.00 Overcast OVC046 30.2 21.2 69% 29.83 0.0
06 03:58 SW 6 10.00 Overcast OVC046 30.2 21.2 69% 25 29.83 0.0
06 03:38 SW 6 10.00 Overcast OVC046 30.2 21.2 69% 25 29.82 0.0
06 03:18 SW 6 10.00 Overcast OVC044 30.2 21.2 69% 25 29.82 0.0
06 02:58 SW 5 10.00 Overcast OVC046 30.2 21.2 69% 26 29.83 0.0
06 02:38 SW 5 10.00 Overcast OVC046 28.4 21.2 74% 24 29.83 0.0
06 02:18 SW 6 10.00 Overcast OVC046 28.4 19.4 69% 23 29.82 0.0
06 01:58 SW 6 10.00 Mostly Cloudy BKN046 28.4 19.4 69% 23 29.82 0.0
06 01:38 SW 6 10.00 A Few Clouds FEW046 26.6 19.4 74% 21 29.83 0.0
06 01:18 SW 5 10.00 Fair CLR 26.6 17.6 69% 22 29.82 0.0
06 00:58 NW 3 10.00 Fair CLR 28.4 19.4 69% 29.82 0.0
06 00:38 NW 3 10.00 Fair CLR 30.2 19.4 64% 29.82 0.0
06 00:18 W 1 10.00 A Few Clouds FEW047 32 19.4 60% 29.82 0.0
05 23:58 W 1 10.00 Overcast OVC047 32 19.4 60% 29.82 0.0
05 23:38 NW 2 10.00 Overcast OVC049 32 19.4 60% 29.82 0.0
05 23:18 NW 3 10.00 Overcast OVC049 32 19.4 60% 29.82 0.0
05 22:58 W 3 10.00 Mostly Cloudy BKN049 32 19.4 60% 29.82 0.0
05 22:38 NW 6 10.00 Fair CLR 32 17.6 55% 27 29.82 0.0
05 22:18 NW 8 10.00 Fair CLR 33.8 17.6 51% 28 29.82 0.0
05 21:47 NW 14 G 20 10.00 Fair CLR 35.6 19.4 52% 27 29.81 0.0
05 20:47 NW 10 10.00 Mostly Cloudy BKN050 39.2 21.2 48% 33 29.79 0.0
05 19:47 NW 10 10.00 Mostly Cloudy BKN055 39.2 19.4 45% 33 29.78 0.0
05 18:47 NW 18 G 25 10.00 A Few Clouds FEW050 FEW065 42.8 19.4 39% 35 29.76 0.0
05 17:45 NW 17 G 26 10.00 Mostly Cloudy SCT050 BKN065 42.8 23 46% 35 29.74 0.0
05 16:47 NW 18 G 25 10.00 Overcast BKN050 BKN060 OVC070 42.8 23 46% 35 29.73 0.0
05 15:45 W 15 10.00 Overcast OVC050 42.8 24.8 49% 36 29.72 0.0
05 14:45 W 12 G 18 10.00 Overcast OVC060 44.6 21.2 39% 39 29.69 0.0
05 13:47 W 14 G 22 10.00 Overcast OVC050 44.6 21.2 39% 39 29.68 0.0
05 12:46 NW 15 G 26 10.00 Mostly Cloudy SCT043 BKN055 44.6 23 43% 38 29.67 0.0
05 11:46 W 10 10.00 Mostly Cloudy SCT036 BKN047 BKN055 39.2 30.2 70% 33 29.66 0.0
05 10:46 W 13 G 20 10.00 A Few Clouds FEW027 FEW035 FEW049 41 28.4 61% 34 29.66 0.0
05 09:46 NW 8 10.00 Mostly Cloudy FEW033 BKN041 BKN085 41 28.4 61% 36 29.63 0.0
05 08:46 W 9 10.00 Overcast OVC060 39.2 28.4 65% 34 29.62 0.0
05 07:46 SW 7 10.00 Overcast BKN030 BKN035 OVC060 35.6 26.6 70% 31 29.61 0.0
05 06:46 SW 3 10.00 Overcast SCT030 OVC030 35.6 26.6 70% 29.59 0.0
05 05:58 NW 5 10.00 Partly Cloudy SCT032 SCT065 33.8 24.8 70% 30 29.58 0.0
05 05:38 NW 5 10.00 Mostly Cloudy FEW033 BKN065 33.8 24.8 70% 30 29.57 0.0
05 05:18 NW 6 10.00 Mostly Cloudy BKN065 35.6 24.8 65% 31 29.57 0.0
05 04:58 NW 6 10.00 Partly Cloudy FEW035 SCT065 35.6 24.8 65% 31 29.57 0.0
05 04:38 NW 10 10.00 Mostly Cloudy SCT035 SCT040 BKN065 37.4 24.8 60% 31 29.57 0.0
05 04:18 NW 9 10.00 Overcast SCT035 SCT041 OVC065 39.2 26.6 61% 34 29.56 0.0
05 03:58 NW 15 G 20 10.00 Overcast FEW036 OVC065 39.2 26.6 61% 31 29.56 0.0
05 03:38 NW 13 G 21 10.00 Overcast SCT035 BKN044 OVC055 39.2 28.4 65% 32 29.56 0.0
05 03:18 NW 10 10.00 Overcast SCT037 BKN043 OVC065 41 28.4 61% 35 29.55 0.0
05 02:58 NW 12 10.00 Overcast BKN039 BKN048 OVC065 41 28.4 61% 35 29.55 0.0
05 02:38 W 15 G 20 10.00 Overcast BKN039 BKN047 OVC050 41 28.4 61% 34 29.55 0.0
05 02:18 NW 16 G 20 10.00 Mostly Cloudy SCT041 BKN050 BKN070 41 28.4 61% 33 29.55 0.0
05 01:58 W 10 G 18 10.00 Mostly Cloudy SCT039 BKN045 BKN070 41 28.4 61% 35 29.55 0.0
05 01:38 NW 15 G 20 10.00 Overcast OVC039 41 28.4 61% 34 29.55 0.0
05 01:18 NW 7 10.00 Mostly Cloudy BKN039 BKN055 39.2 28.4 65% 35 29.54 0.0
05 00:58 W 8 10.00 Fair CLR 39.2 26.6 61% 34 29.53 0.0
05 00:38 W 9 10.00 Fair CLR 41 26.6 57% 36 29.51 0.0
05 00:18 NW 8 G 18 10.00 Fair CLR 41 26.6 57% 36 29.51 0.0
04 23:58 NW 13 G 18 10.00 Fair CLR 42.8 26.6 53% 37 29.5 0.0
04 23:38 NW 14 G 18 10.00 Fair CLR 42.8 26.6 53% 36 29.5 0.0
04 23:18 NW 13 G 23 10.00 Fair CLR 42.8 26.6 53% 37 29.5 0.0
04 22:58 NW 8 G 20 10.00 Fair CLR 42.8 26.6 53% 39 29.49 0.0
04 22:38 W 16 G 22 10.00 Fair CLR 44.6 26.6 49% 38 29.48 0.0
04 22:18 NW 15 10.00 Fair CLR 44.6 28.4 53% 38 29.47 0.0
04 21:47 NW 20 G 26 10.00 Fair CLR 46.4 26.6 46% 40 29.45 0.0
04 20:47 NW 21 G 30 10.00 Fair and Breezy CLR 50 28.4 43% 44 29.41 0.0
04 19:47 W 20 G 30 10.00 Fair CLR 53.6 30.2 41% 29.38 0.0
04 18:47 W 22 G 26 10.00 Mostly Cloudy and Breezy BKN090 59 33.8 39% 29.35 0.0
04 17:47 NW 16 G 28 10.00 Mostly Cloudy SCT080 BKN090 59 35.6 42% 29.32 0.0
04 16:47 NW 15 G 26 10.00 A Few Clouds FEW090 64.4 35.6 34% 29.29 0.0
04 15:47 W 21 G 31 10.00 A Few Clouds and Breezy FEW120 64.4 35.6 34% 29.29 0.0
04 14:47 W 16 G 28 10.00 Partly Cloudy SCT085 62.6 35.6 37% 29.3 0.0
04 13:47 W 18 G 25 10.00 A Few Clouds FEW050 FEW120 60.8 39.2 45% 29.29 0.0
04 12:45 NW 15 G 28 10.00 Overcast SCT085 OVC110 57.2 39.2 51% 29.29 0.0
04 11:45 W 25 G 33 10.00 Mostly Cloudy and Breezy FEW065 BKN075 64.4 35.6 34% 29.25 0.0
04 10:45 SW 16 G 26 10.00 Light Rain SCT075 BKN095 OVC110 59 37.4 45% 29.24 0.0
04 09:45 S 16 10.00 Mostly Cloudy BKN100 57.2 35.6 44% 29.26 0.0
04 08:45 S 17 10.00 Fair CLR 48.2 39.2 71% 42 29.3 0.0
04 07:45 S 16 10.00 Fair CLR 46.4 39.2 76% 40 29.35 0.0
04 06:45 S 14 10.00 Fair CLR 42.8 39.2 87% 36 29.38 0.0
04 05:58 S 14 10.00 Fair CLR 42.8 39.2 87% 36 29.41 0.0
04 05:38 S 10 10.00 Fair CLR 41 37.4 87% 35 29.42 0.0
04 05:18 S 10 10.00 Fair CLR 41 39.2 93% 35 29.43 0.0
04 04:58 S 10 10.00 Fair CLR 41 37.4 87% 35 29.45 0.0
04 04:38 S 10 10.00 Fair CLR 41 37.4 87% 35 29.46 0.0
04 04:18 S 10 10.00 Fair CLR 39.2 37.4 93% 33 29.47 0.0
04 03:58 S 9 10.00 Fair CLR 39.2 37.4 93% 34 29.47 0.0
04 03:38 S 10 10.00 Fair CLR 41 37.4 87% 35 29.48 0.0
04 03:18 S 10 10.00 Fair CLR 41 37.4 87% 35 29.49 0.0
04 02:58 S 8 10.00 Fair CLR 39.2 37.4 93% 34 29.5 0.0
04 02:38 S 8 10.00 Fair CLR 41 37.4 87% 36 29.51 0.0
04 02:18 S 7 10.00 Fair CLR 41 37.4 87% 37 29.52 0.0
04 01:58 S 9 10.00 Fair CLR 41 35.6 81% 36 29.53 0.0
04 01:38 S 8 10.00 Fair CLR 41 35.6 81% 36 29.54 0.0
04 01:18 S 8 10.00 Fair CLR 41 35.6 81% 36 29.54 0.0
04 00:58 S 8 10.00 Fair CLR 41 35.6 81% 36 29.55 0.0
04 00:38 S 3 10.00 Fair CLR 42.8 37.4 81% 29.56 0.0
04 00:18 S 5 10.00 Fair CLR 42.8 37.4 81% 41 29.56 0.0
03 23:58 S 3 10.00 Fair CLR 44.6 37.4 76% 29.57 0.0
03 23:38 S 6 10.00 Fair CLR 44.6 37.4 76% 42 29.57 0.0
03 23:18 S 3 10.00 Fair CLR 44.6 37.4 76% 29.58 0.0
03 22:58 S 3 10.00 Fair CLR 44.6 39.2 81% 29.58 0.0
03 22:38 S 5 10.00 Fair CLR 46.4 37.4 71% 45 29.59 0.0
03 22:18 S 3 10.00 Fair CLR 46.4 39.2 76% 29.59 0.0
03 21:47 S 5 10.00 Fair CLR 46.4 37.4 71% 45 29.59 0.0
03 20:47 NE 5 10.00 Fair CLR 51.8 37.4 58% 29.59 0.0
03 19:47 NE 10 10.00 Fair CLR 55.4 39.2 55% 29.57 0.0
03 18:47 NE 17 10.00 Fair CLR 57.2 39.2 51% 29.56 0.0
03 17:47 NE 20 10.00 Partly Cloudy SCT100 59 39.2 48% 29.55 0.0
03 16:47 E 13 10.00 Mostly Cloudy FEW050 BKN100 59 42.8 55% 29.54 0.0
03 15:47 N 7 10.00 Thunderstorm in Vicinity SCT048 59 42.8 55% 29.54 0.0
03 14:47 W 15 G 23 10.00 Thunderstorm in Vicinity FEW065 SCT080 BKN110 62.6 37.4 39% 29.56 0.0
03 13:47 SW 12 10.00 Mostly Cloudy BKN065 60.8 37.4 42% 29.58 0.0
03 12:45 SW 9 10.00 Mostly Cloudy BKN100 60.8 41 48% 29.6 0.0
03 11:45 W 9 10.00 Mostly Cloudy SCT060 BKN100 57.2 41 55% 29.63 0.0
03 09:46 SW 7 10.00 Overcast BKN090 OVC110 44.6 39.2 81% 41 29.67 0.0
Date Time (edt) Wind (mph) Vis. (mi.) Weather Sky Cond. Air Dwpt Max. Min. Relative Humidity Wind Chill (°F) Heat Index (°F) altimeter (in) sea level (mb) 1 hr 3 hr 6 hr
6 hour
Temperature (ºF) Pressure Precipitation (in)